Weather History for Hamilton, OH

Change the Weather History Date:

Friday, November 8, 2013

  Actual Average (KCVG) Record (KCVG)
Temperature  
Mean Temperature 40 °F 48 °F  
Max Temperature 51 °F 58 °F 76 °F (1945)
Min Temperature 28 °F 39 °F 14 °F (1971)
Degree Days  
Heating Degree Days 26 17  
Month to date heating degree days 124  
Since 1 July heating degree days 486  
Cooling Degree Days 0 0  
Month to date cooling degree days 0  
Year to date cooling degree days 1121  
Moisture  
Dew Point 30 °F    
Average Humidity 72    
Maximum Humidity 89    
Minimum Humidity 39    
Precipitation  
Precipitation 0.00 in 0.10 in 1.14 in (1957)
Month to date precipitation 0.87  
Year to date precipitation 36.59  
Snow  
Snow 0.00 in 0.00 in 0.00 in ()
Month to date snowfall 0.1  
Since 1 July snowfall 0.5  
Since 1 September snowfall 0.5  
Snow Depth -    
Sea Level Pressure  
Sea Level Pressure 30.32 in    
Wind  
Wind Speed 5 mph (West)    
Max Wind Speed 12 mph    
Max Gust Speed -    
Visibility 9 miles    
Events Snow    
T = Trace of Precipitation, MM = Missing Value Source: NWS Daily Summary

Daily Weather History Graph

Daily Weather History Graph

Search for Another Location

Airport:

Trip Planner

Search our weather history database for the weather conditions in past years. The results will help you decide how hot, cold, wet, or windy it might be!

Date:

Astronomy

Nov. 08, 2013 Rise Set
Actual Time 7:14 AM EST 5:29 PM EST
Civil Twilight 6:45 AM EST 5:57 PM EST
Nautical Twilight 6:13 AM EST 6:29 PM EST
Astronomical Twilight 5:42 AM EST 7:00 PM EST
Moon 12:09 PM EST (11/8) 10:48 PM EST (11/8)
Length of Visible Light 11h 11m
Length of Day
10h 14m
Waxing Crescent, 33% of the Moon is Illuminated
Nov 8
Waxing Crescent
Nov 10
First Quarter
Nov 17
Full
Nov 25
Last Quarter
Dec 2
New

Hourly Weather History & Observations

Time (EST) Temp. Windchill Dew Point Humidity Pressure Visibility Wind Dir Wind Speed Gust Speed Precip Events Conditions
12:42 AM 37.4 °F 33.8 °F 30.2 °F 75% 30.24 in 10.0 mi West 4.6 mph - N/A   Mostly Cloudy
12:53 AM 39.9 °F 35.1 °F 30.9 °F 70% 30.25 in 10.0 mi WNW 6.9 mph - N/A   Overcast
1:53 AM 39.0 °F 34.0 °F 30.9 °F 73% 30.27 in 10.0 mi West 6.9 mph - N/A   Mostly Cloudy
2:01 AM 37.4 °F 30.3 °F 30.2 °F 75% 30.27 in 10.0 mi WNW 10.4 mph - N/A   Partly Cloudy
2:53 AM 36.0 °F 28.0 °F 30.0 °F 79% 30.30 in 9.0 mi WNW 11.5 mph - N/A   Partly Cloudy
3:05 AM 35.6 °F 29.9 °F 30.2 °F 81% 30.29 in 9.0 mi West 6.9 mph - N/A   Mostly Cloudy
3:30 AM 35.6 °F 31.7 °F 30.2 °F 81% 30.29 in 9.0 mi West 4.6 mph - N/A   Partly Cloudy
3:53 AM 33.1 °F 28.7 °F 28.9 °F 85% 30.30 in 8.0 mi West 4.6 mph - N/A   Clear
4:53 AM 32.0 °F 26.4 °F 28.9 °F 88% 30.32 in 7.0 mi West 5.8 mph - N/A   Clear
5:53 AM 30.0 °F 25.2 °F 27.0 °F 88% 30.33 in 6.0 mi WSW 4.6 mph - N/A   Clear
6:53 AM 28.9 °F - 26.1 °F 89% 30.35 in 5.0 mi Calm Calm - 0.00 in Snow Light Snow
7:53 AM 32.0 °F 27.5 °F 28.9 °F 88% 30.37 in 5.0 mi West 4.6 mph - 0.00 in Snow Light Snow
8:53 AM 36.0 °F 30.3 °F 30.0 °F 79% 30.40 in 8.0 mi West 6.9 mph - 0.00 in   Clear
9:53 AM 39.9 °F 35.8 °F 32.0 °F 73% 30.40 in 10.0 mi Variable 5.8 mph - N/A   Clear
10:53 AM 44.1 °F - 32.0 °F 63% 30.40 in 10.0 mi Calm Calm - N/A   Clear
11:53 AM 46.9 °F - 30.9 °F 54% 30.39 in 10.0 mi Variable 4.6 mph - N/A   Clear
12:53 PM 48.0 °F - 30.0 °F 50% 30.35 in 10.0 mi Calm Calm - N/A   Clear
1:53 PM 51.1 °F - 28.9 °F 43% 30.34 in 10.0 mi West 4.6 mph - N/A   Clear
2:53 PM 51.1 °F - 28.0 °F 41% 30.33 in 10.0 mi WSW 9.2 mph - N/A   Clear
3:53 PM 51.1 °F - 27.0 °F 39% 30.31 in 10.0 mi WSW 3.5 mph - N/A   Clear
4:53 PM 48.9 °F - 27.0 °F 43% 30.30 in 10.0 mi SW 3.5 mph - N/A   Clear
5:53 PM 39.9 °F - 30.9 °F 70% 30.30 in 10.0 mi Calm Calm - N/A   Clear
6:53 PM 35.1 °F - 28.9 °F 78% 30.31 in 10.0 mi Calm Calm - N/A   Clear
7:53 PM 32.0 °F - 28.9 °F 88% 30.31 in 10.0 mi Calm Calm - N/A   Clear
8:53 PM 33.1 °F - 30.0 °F 89% 30.30 in 10.0 mi Calm Calm - N/A   Clear
9:53 PM 37.9 °F 35.5 °F 30.9 °F 76% 30.28 in 10.0 mi ESE 3.5 mph - N/A   Clear
10:53 PM 39.0 °F 36.8 °F 32.0 °F 76% 30.27 in 10.0 mi East 3.5 mph - N/A   Clear
11:53 PM 37.0 °F 34.5 °F 32.0 °F 82% 30.27 in 10.0 mi ESE 3.5 mph - N/A   Clear